Weather History for PHLI - July, 2014

Change the Weather History Date:

Friday, July 11, 2014

  Actual Average Record
Temperature  
Mean Temperature 80 °F 79 °F  
Max Temperature 85 °F 84 °F 88 °F (1981)
Min Temperature 74 °F 74 °F 65 °F (1979)
Degree Days  
Heating Degree Days 0 0  
Month to date heating degree days 0 0  
Since 1 June heating degree days 0 0  
Since 1 July heating degree days 0 0  
Cooling Degree Days 15 14  
Month to date cooling degree days 161 154  
Year to date cooling degree days 1762 1787  
Since 1 June cooling degree days 541 548  
Growing Degree Days 28 (Base 50)    
Moisture  
Dew Point 69 °F    
Average Humidity 73    
Maximum Humidity 87    
Minimum Humidity 58    
Precipitation  
Precipitation T in 0.06 in 0.71 in (1954)
Month to date precipitation 0.24 0.60  
Year to date precipitation 19.16 18.05  
Snow  
Snow 0.00 in - - ()
Month to date snowfall 0.0  
Since 1 June snowfall 0.0  
Since 1 July snowfall 0.0  
Snow Depth 0.00 in    
Sea Level Pressure  
Sea Level Pressure 30.02 in    
Wind  
Wind Speed 15 mph (NE)    
Max Wind Speed 21 mph    
Max Gust Speed 24 mph    
Visibility 10 miles    
Events Rain    
T = Trace of Precipitation, MM = Missing Value Source: NWS Daily Summary

Daily Weather History Graph

Daily Weather History Graph

Search for Another Location

Airport or City:

Trip Planner

Search our weather history database for the weather conditions in past years. The results will help you decide how hot, cold, wet, or windy it might be!

Date:

Astronomy

Jul. 11, 2014 Rise Set
Actual Time 6:01 AM HST 7:24 PM HST
Civil Twilight 5:36 AM HST 7:49 PM HST
Nautical Twilight 5:07 AM HST 8:18 PM HST
Astronomical Twilight 4:36 AM HST 8:48 PM HST
Moon 6:54 PM HST (7/11) 5:18 AM HST (7/11)
Length of Visible Light 14h 12m
Length of Day
13h 23m
Full, 100% of the Moon is Illuminated
Jul 11
Full
Jul 12
Full
Jul 18
Last Quarter
Jul 26
New
Aug 3
First Quarter

Hourly Weather History & Observations

Time (HST) Temp. Heat Index Dew Point Humidity Pressure Visibility Wind Dir Wind Speed Gust Speed Precip Events Conditions
12:53 AM 75.0 °F - 69.1 °F 82% 30.06 in 9.0 mi ENE 16.1 mph - 0.00 in Rain Light Rain
1:53 AM 77.0 °F - 66.0 °F 69% 30.03 in 10.0 mi ENE 13.8 mph - 0.00 in   Overcast
2:53 AM 75.0 °F - 69.1 °F 82% 30.01 in 10.0 mi NNE 12.7 mph - N/A   Mostly Cloudy
3:53 AM 73.9 °F - 69.1 °F 85% 30.01 in 10.0 mi North 8.1 mph - N/A   Partly Cloudy
4:53 AM 77.0 °F - 66.0 °F 69% 30.02 in 10.0 mi NE 13.8 mph - N/A   Clear
5:53 AM 77.0 °F - 66.9 °F 71% 30.02 in 10.0 mi NE 12.7 mph - N/A   Scattered Clouds
6:53 AM 78.1 °F - 66.9 °F 68% 30.02 in 10.0 mi ENE 12.7 mph - N/A   Overcast
7:53 AM 80.1 °F 82.7 °F 68.0 °F 67% 30.04 in 10.0 mi NE 16.1 mph - N/A   Clear
8:53 AM 80.1 °F 83.2 °F 70.0 °F 71% 30.04 in 10.0 mi NE 20.7 mph - N/A   Mostly Cloudy
9:53 AM 80.1 °F 82.9 °F 69.1 °F 69% 30.05 in 10.0 mi NE 18.4 mph - N/A   Overcast
10:53 AM 82.9 °F 86.5 °F 69.1 °F 63% 30.05 in 10.0 mi ENE 17.3 mph - N/A   Mostly Cloudy
11:53 AM 82.9 °F 85.8 °F 68.0 °F 60% 30.05 in 10.0 mi NE 15.0 mph - N/A   Clear
12:53 PM 82.9 °F 86.5 °F 69.1 °F 63% 30.04 in 10.0 mi NE 15.0 mph - N/A   Clear
1:53 PM 84.0 °F 87.0 °F 68.0 °F 58% 30.02 in 10.0 mi NE 16.1 mph - N/A   Clear
2:53 PM 82.9 °F 85.4 °F 66.9 °F 58% 30.01 in 10.0 mi NE 13.8 mph - N/A   Clear
3:53 PM 82.9 °F 85.8 °F 68.0 °F 60% 30.00 in 10.0 mi NE 13.8 mph - N/A   Partly Cloudy
4:53 PM 81.0 °F 84.1 °F 69.1 °F 67% 29.99 in 10.0 mi NE 12.7 mph - N/A   Mostly Cloudy
5:10 PM 75.2 °F - 71.6 °F 89% 29.99 in 6.0 mi ENE 10.4 mph - 0.00 in Rain Light Rain
5:24 PM 78.8 °F - 69.8 °F 74% 29.99 in 10.0 mi NE 16.1 mph - 0.00 in   Mostly Cloudy
5:53 PM 78.1 °F - 70.0 °F 76% 29.98 in 10.0 mi NE 15.0 mph - 0.00 in   Scattered Clouds
6:53 PM 78.1 °F - 70.0 °F 76% 29.99 in 10.0 mi NE 13.8 mph - N/A   Mostly Cloudy
7:53 PM 78.1 °F - 69.1 °F 74% 30.01 in 10.0 mi ENE 15.0 mph - N/A   Mostly Cloudy
8:53 PM 78.1 °F - 70.0 °F 76% 30.02 in 10.0 mi NE 15.0 mph - N/A   Overcast
9:53 PM 77.0 °F - 69.1 °F 76% 30.02 in 10.0 mi NE 12.7 mph - N/A   Partly Cloudy
10:53 PM 77.0 °F - 70.0 °F 79% 30.03 in 10.0 mi ENE 15.0 mph - N/A   Partly Cloudy
11:53 PM 77.0 °F - 70.0 °F 79% 30.03 in 10.0 mi NE 16.1 mph - N/A   Scattered Clouds